Location: Burbank
(38.7788°N, 114.0429°W)
Time: 01:53:19
(UTC+00:00)

Tiros 1 despin weight - Pass Details

Date: 10 May 2026
Orbit: 554 x 591 km, 48.2° (Epoch: 6 June)

Event Time Altitude Azimuth Distance (km) Brightness Sun altitude
Rises 16:51:03 0° 286° (WNW) 2,733 ? 49.2°
Reaches altitude 10° 16:53:41 10° 301° (WNW) 1,835 ? 49.6°
Maximum altitude 16:57:01 23° 355° (N) 1,215 ? 50.3°
Drops below altitude 10° 17:00:22 10° 48° (NE) 1,834 ? 50.9°
Sets 17:03:00 0° 63° (ENE) 2,731 ? 51.3°
